ORBCOMM FM 8

Satellite information

Favourite Embed

Satellite Type and Status

PAYLOADIN ORBIT

Key statistics

Satellite ORBCOMM FM 8 at a glance.

Uptime

10112

Days in orbit

Revolutions

≈ 14.5

Per day

Orbit

LEO

Low Earth Orbit

Inclination

45.0

Latest

Satellite identification and parameters

Extended collection of information and parameters for ORBCOMM FM 8.

Object identification

Identified? True

Debris? False

Object name: ORBCOMM FM 8

International designator: 1997-084A

Object number (NORAD): 25112

Object ID (CCSDS): 25112

Country: ORBITAL TELECOMMUNICATIONS SATELLITE (GLOBALSTAR) (ORB)

Current information (Y/N): Y

RCS size: MEDIUM

Orbital parameters

Period: 99.585 minutes

Inclination: 45.0154 deg

SMA: 7116.867 km

Apoapsis: 743.676 km

Periapsis: 733.788 km

RAAN: 21.2407 deg

Eccentricy: 0.00069467

Argument of periapsis: 243.5192 deg

Mean anomaly: 116.4948 deg

Mean motion: 14.46003889 rev/day

Mean motion (dot): 0.0000194 rev/day2

B* drag term: 0.00057933599 1/REarth

Two-line elements (TLE)

Creation date: Aug. 28, 2025, 11:13 p.m.

Reference frame: TEME

Reference center: EARTH

Epoch: Aug. 28, 2025, 9:12 a.m. UTC

TLE line 0: 0 ORBCOMM FM 8

TLE line 1: 1 25112U 97084A 25240.38344831 .00001940 00000-0 57934-3 0 9991

TLE line 2: 2 25112 45.0154 21.2407 0006947 243.5192 116.4948 14.46003889451826

Live tracking on map

Real-time ground track for satellite ORBCOMM FM 8.

In-orbit conjunctions

There are no conjunctions computed for ORBCOMM FM 8, at the moment. Check back to stay up to date, as we update our databases every day.

Go to all conjunctions

Associated space launch

ORBCOMM FM 8 was lifted into orbit during the mission ‘Pegasus XL HAPS | Orbcomm-A1 - A8’, on board a Pegasus XL HAPS space rocket.

The launch took place on Dec. 23, 1997, 7:11 p.m. from Wallops Flight Facility.

For more information about the launch, click the button.

Launch to space Pegasus XL HAPS | Orbcomm-A1 - A8
Pegasus XL HAPS | Orbcomm-A1 - A8

Agency: N/A

Status: Launch Successful

Launch date: Dec. 23, 1997, 7:11 p.m. UTC

Rocket: Pegasus XL HAPS

Launch pad: Wallops Flight Facility

Location: Air launch to orbit

...

Latest news about this satellite

There are no fresh news available about this satellite. Check back as we update our databases every day.


Newsletter sign-up

Weekly statistics, charts and insights to help you stay on top of the space industry.